Location: ?
(35.4554°N, 139.3092°E)
Time: 22:01:46
(UTC+00:00)

Cosmos 1470 - Pass Details

Date: 21 April 2021
Orbit: 519 x 543 km, 82.5° (Epoch: 10 May)

Event Time Altitude Azimuth Distance (km) Brightness Sun altitude
Rises 18:37:35 0° 357° (N) 2,649 6.7 -16.7°
Reaches altitude 10° 18:39:45 10° 1° (N) 1,758 5.8 -16.3°
Maximum altitude 18:43:34 61° 82° (E) 594 3.2 -15.7°
Drops below altitude 10° 18:47:22 10° 163° (SSE) 1,752 5.3 -15.0°
Sets 18:49:31 0° 167° (SSE) 2,639 6.2 -14.6°
